User: anonymous   Login
Location: Clanezzo
(45.7500°N, 9.6000°E)
Time: 02:13:29
(UTC+00:00)
Language:

Gbstr 26 Del rocket - Orbit

View from above orbital plane
View from above orbital plane
View from above satellite
View from above satellite

Ground track
Ground track

The orbit data is extracted from the following two-line orbital elements,

1 25876U 99041E   21208.54310903  .00000100  00000-0  59005-4 0  9993
2 25876  51.7627 150.9868 0531663  85.6706 280.4757 14.04590945125553
Epoch (UTC): 27 July 2021 13:02:04
Eccentricity: 0.0531663
inclination: 51.7627°
perigee height: 492 km
apogee height: 1264 km
right ascension of ascending node: 150.9868°
argument of perigee: 85.6706°
revolutions per day: 14.04590945
mean anomaly at epoch: 280.4757°
orbit number at epoch: 12555

The dashed part of the orbit path shows where the satellite is in the earth's shadow,  

DLR